Hourly Weather Roundup
Issued by NWS Central Illinois

Home | Current Version | Previous Version | Text Only | Print | Product List | Glossary On
Versions: 1 2 3 4 5 6 7 8 9 10 11 12 13 14 15 16 17 18 19 20 21 22 23 24 25 26 27 28 29 30 31 32 33 34 35 36 37 38 39 40 41 42 43 44 45 46 47 48 49 50
000
NZUS43 KILX 211510
HWRILX

Area Weather Roundup
National Weather Service Lincoln IL
1000 AM CDT SAT OCT 21 2017

NOTE:  "FAIR" indicates few or no clouds below 12,000 feet, with
       no sigificant weather and/or obstructions to visibility.


CITY           SKY/WX    TMP DP  RH WIND       PRES   REMARKS
Bloomington    CLOUDY    62  53  72 S14       30.09S
Champaign      CLOUDY    65  50  58 S15       30.11F
Danville       MOSUNNY   64  50  60 SE6       30.12S
Decatur        CLOUDY    63  52  67 S15       30.09F
Effingham      MOSUNNY   64  51  62 SE12G17   30.14S
Flora          CLOUDY    65  53  63 S10       30.15S
Galesburg      SUNNY     73  64  71 S15G22    30.00S
Jacksonville   PTSUNNY   66  55  66 S14G23    30.03S
Lacon          PTSUNNY   65  53  63 S13       30.02F
Lawrenceville  CLOUDY    61  51  70 S10       30.18S
Litchfield     CLOUDY    62  54  75 S14       30.07S
$$


CITY           SKY/WX    TMP DP  RH WIND       PRES   REMARKS
Lincoln        CLOUDY    65  54  67 S15       30.06S
Macomb         CLOUDY    67  56  67 S16       30.01F
Mattoon        CLOUDY    63  52  67 S10G22    30.12S
Mt Carmel AP   CLOUDY    61  49  64 S9        30.17F
Olney-Noble AP PTSUNNY   63  49  61 S12       30.16S
Paris AP       CLOUDY    63  52  67 S10G16    30.15F
Peoria         MOSUNNY   62  53  72 S13       30.04S
Pontiac        MOSUNNY   67  54  62 S16G25    30.08S
Rantoul        CLOUDY    65  53  65 S13       30.11F
Robinson       CLOUDY    63  51  65 S8        30.18S
Springfield    PTSUNNY   67  55  65 S12       30.05S
Taylorville    PTSUNNY   62  53  74 S9        30.08S
$$

...REGIONAL REPORTS...


CITY           SKY/WX    TMP DP  RH WIND       PRES   REMARKS
Chicago O`Hare CLOUDY    64  50  60 S12       30.06F
Kankakee       PTSUNNY   63  49  60 S8        30.11F
Moline         SUNNY     69  54  58 S14G20    29.96R
Mount Sterling PTSUNNY   66  55  67 S9        30.00F
Mount Vernon   CLOUDY    67  54  63 S12       30.14S
Pittsfield     MOSUNNY   70  58  65 S15       30.03R
Quincy         CLOUDY    68  57  68 S14G24    29.97F
Rockford       CLOUDY    65  53  65 S15G22    30.03S
$$


CITY           SKY/WX    TMP DP  RH WIND       PRES   REMARKS
Burlington     SUNNY     67  56  67 S14G25    29.95S
Cedar Rapids   PTSUNNY   67  55  65 S17G28    29.89S
Des Moines     CLOUDY    66  58  75 S17       29.78F
Kirksville     PTSUNNY   69  60  73 S18G36    29.93S
Ottumwa        MOSUNNY   67  56  67 S22       29.87F
St Louis       CLOUDY    66  57  72 S14G20    30.06R
$$


CITY           SKY/WX    TMP DP  RH WIND       PRES   REMARKS
Terre Haute    MOSUNNY   61  51  70 S10       30.17F
Evansville     PTSUNNY   63  50  62 CALM      30.20S
Indianapolis   MOSUNNY   61  52  72 S6        30.20F
Lafayette      PTSUNNY   62  51  67 S9        30.15F
Madison        CLOUDY    63  52  67 S20G28    29.96R
Milwaukee      CLOUDY    65  50  58 S17       30.03S
$$






USA.gov is the U.S. government's official web portal to all federal, state and local government web resources and services.